Time,TemperatureF,DewpointF,PressureIn,WindDirection,WindDirectionDegrees,WindSpeedMPH,WindSpeedGustMPH,Humidity,HourlyPrecipIn,Conditions,Clouds,dailyrainin,SoftwareType,DateUTC
2013-03-16 00:06:00,34.5,26.0,29.66,WSW,240,3.0,11.0,72,0.00,,,0.00,weatherlink.com 1.10,2013-03-16 04:06:00,
2013-03-16 00:21:00,34.4,26.0,29.67,WNW,299,3.0,9.0,71,0.00,,,0.00,weatherlink.com 1.10,2013-03-16 04:21:00,
2013-03-16 00:36:00,34.4,26.0,29.68,West,262,3.0,6.0,71,0.00,,,0.00,weatherlink.com 1.10,2013-03-16 04:36:00,
2013-03-16 00:51:00,34.5,26.0,29.68,WNW,288,2.0,7.0,70,0.00,,,0.00,weatherlink.com 1.10,2013-03-16 04:51:00,
2013-03-16 01:07:00,34.7,25.0,29.68,WSW,253,0.0,8.0,67,0.00,,,0.00,weatherlink.com 1.10,2013-03-16 05:07:00,
2013-03-16 01:21:00,34.5,24.0,29.69,West,279,2.0,8.0,65,0.00,,,0.00,weatherlink.com 1.10,2013-03-16 05:21:00,
2013-03-16 01:37:00,34.4,24.0,29.70,ESE,121,0.0,7.0,65,0.00,,,0.00,weatherlink.com 1.10,2013-03-16 05:37:00,
2013-03-16 01:52:00,34.1,23.0,29.70,NNW,331,4.0,8.0,64,0.00,,,0.00,weatherlink.com 1.10,2013-03-16 05:52:00,
2013-03-16 02:07:00,33.9,24.0,29.71,WNW,301,2.0,5.0,66,0.00,,,0.00,weatherlink.com 1.10,2013-03-16 06:07:00,
2013-03-16 02:22:00,33.8,23.0,29.72,NNE,17,4.0,9.0,66,0.00,,,0.00,weatherlink.com 1.10,2013-03-16 06:22:00,
2013-03-16 02:37:00,32.6,24.0,29.73,NW,319,3.0,8.0,72,0.00,,,0.00,weatherlink.com 1.10,2013-03-16 06:37:00,
2013-03-16 02:52:00,32.1,24.0,29.73,NNW,343,0.0,3.0,71,0.00,,,0.00,weatherlink.com 1.10,2013-03-16 06:52:00,
2013-03-16 03:07:00,31.3,23.0,29.73,NNW,340,0.0,2.0,72,0.00,,,0.00,weatherlink.com 1.10,2013-03-16 07:07:00,
2013-03-16 03:22:00,30.8,22.0,29.73,ESE,102,0.0,4.0,71,0.00,,,0.00,weatherlink.com 1.10,2013-03-16 07:22:00,
2013-03-16 03:52:00,30.2,22.0,29.74,WNW,295,0.0,2.0,70,0.00,,,0.00,weatherlink.com 1.10,2013-03-16 07:52:00,
2013-03-16 04:07:00,29.6,22.0,29.75,West,267,0.0,1.0,72,0.00,,,0.00,weatherlink.com 1.10,2013-03-16 08:07:00,
2013-03-16 04:22:00,28.7,21.0,29.75,West,267,0.0,0.0,73,0.00,,,0.00,weatherlink.com 1.10,2013-03-16 08:22:00,
2013-03-16 04:37:00,27.8,21.0,29.76,West,267,0.0,0.0,75,0.00,,,0.00,weatherlink.com 1.10,2013-03-16 08:37:00,
2013-03-16 04:52:00,27.5,21.0,29.77,West,267,0.0,0.0,76,0.00,,,0.00,weatherlink.com 1.10,2013-03-16 08:52:00,
2013-03-16 05:07:00,27.5,20.0,29.77,NNW,327,0.0,3.0,74,0.00,,,0.00,weatherlink.com 1.10,2013-03-16 09:07:00,
2013-03-16 05:22:00,28.6,19.0,29.78,NW,324,1.0,5.0,67,0.00,,,0.00,weatherlink.com 1.10,2013-03-16 09:22:00,
2013-03-16 05:37:00,28.9,17.0,29.78,WNW,301,2.0,3.0,62,0.00,,,0.00,weatherlink.com 1.10,2013-03-16 09:37:00,
2013-03-16 05:52:00,28.8,16.0,29.79,NNW,342,0.0,2.0,60,0.00,,,0.00,weatherlink.com 1.10,2013-03-16 09:52:00,
2013-03-16 06:07:00,28.4,16.0,29.80,West,264,0.0,2.0,60,0.00,,,0.00,weatherlink.com 1.10,2013-03-16 10:07:00,
2013-03-16 06:22:00,28.5,15.0,29.80,NNW,328,2.0,3.0,58,0.00,,,0.00,weatherlink.com 1.10,2013-03-16 10:22:00,
2013-03-16 06:37:00,28.3,15.0,29.80,NNW,346,1.0,2.0,58,0.00,,,0.00,weatherlink.com 1.10,2013-03-16 10:37:00,
2013-03-16 06:52:00,28.1,15.0,29.81,WNW,299,0.0,2.0,58,0.00,,,0.00,weatherlink.com 1.10,2013-03-16 10:52:00,
2013-03-16 07:07:00,28.0,14.0,29.81,NW,317,1.0,3.0,57,0.00,,,0.00,weatherlink.com 1.10,2013-03-16 11:07:00,
2013-03-16 07:22:00,27.9,14.0,29.81,WNW,292,0.0,2.0,57,0.00,,,0.00,weatherlink.com 1.10,2013-03-16 11:22:00,
2013-03-16 07:37:00,27.9,14.0,29.82,NW,305,1.0,3.0,57,0.00,,,0.00,weatherlink.com 1.10,2013-03-16 11:37:00,
2013-03-16 07:53:00,28.4,14.0,29.82,WNW,283,1.0,4.0,56,0.00,,,0.00,weatherlink.com 1.10,2013-03-16 11:53:00,
2013-03-16 08:08:00,29.3,15.0,29.83,SW,235,0.0,4.0,55,0.00,,,0.00,weatherlink.com 1.10,2013-03-16 12:08:00,
2013-03-16 08:23:00,29.9,15.0,29.83,NW,312,4.0,6.0,53,0.00,,,0.00,weatherlink.com 1.10,2013-03-16 12:23:00,
2013-03-16 08:38:00,30.4,15.0,29.84,NNW,339,0.0,9.0,52,0.00,,,0.00,weatherlink.com 1.10,2013-03-16 12:38:00,
2013-03-16 08:53:00,31.0,14.0,29.84,NNE,17,0.0,7.0,50,0.00,,,0.00,weatherlink.com 1.10,2013-03-16 12:53:00,
2013-03-16 09:08:00,31.4,14.0,29.83,WNW,286,1.0,8.0,48,0.00,,,0.00,weatherlink.com 1.10,2013-03-16 13:08:00,
2013-03-16 09:23:00,31.9,13.0,29.84,NW,312,0.0,5.0,46,0.00,,,0.00,weatherlink.com 1.10,2013-03-16 13:23:00,
2013-03-16 09:38:00,32.3,13.0,29.84,ENE,68,3.0,8.0,45,0.00,,,0.00,weatherlink.com 1.10,2013-03-16 13:38:00,
2013-03-16 09:53:00,32.2,13.0,29.84,NNE,30,1.0,9.0,45,0.00,,,0.00,weatherlink.com 1.10,2013-03-16 13:53:00,
2013-03-16 10:08:00,32.9,12.0,29.84,NW,319,3.0,7.0,43,0.00,,,0.00,weatherlink.com 1.10,2013-03-16 14:08:00,
2013-03-16 10:23:00,33.0,12.0,29.83,NE,38,1.0,6.0,42,0.00,,,0.00,weatherlink.com 1.10,2013-03-16 14:23:00,
2013-03-16 10:38:00,33.0,12.0,29.83,WNW,298,3.0,6.0,41,0.00,,,0.00,weatherlink.com 1.10,2013-03-16 14:38:00,
2013-03-16 10:53:00,32.7,11.0,29.83,West,281,1.0,7.0,41,0.00,,,0.00,weatherlink.com 1.10,2013-03-16 14:53:00,
2013-03-16 11:08:00,33.4,11.0,29.83,West,261,4.0,4.0,40,0.00,,,0.00,weatherlink.com 1.10,2013-03-16 15:08:00,
2013-03-16 11:23:00,33.4,11.0,29.83,WSW,249,1.0,6.0,39,0.00,,,0.00,weatherlink.com 1.10,2013-03-16 15:23:00,
2013-03-16 11:38:00,33.6,12.0,29.82,SW,232,0.0,7.0,40,0.00,,,0.00,weatherlink.com 1.10,2013-03-16 15:38:00,
2013-03-16 11:53:00,34.1,11.0,29.82,West,281,3.0,6.0,38,0.00,,,0.00,weatherlink.com 1.10,2013-03-16 15:53:00,
2013-03-16 12:08:00,33.7,10.0,29.82,West,277,2.0,7.0,38,0.00,,,0.00,weatherlink.com 1.10,2013-03-16 16:08:00,
2013-03-16 12:23:00,34.7,11.0,29.82,SSW,208,4.0,4.0,38,0.00,,,0.00,weatherlink.com 1.10,2013-03-16 16:23:00,
2013-03-16 12:38:00,34.3,11.0,29.81,WSW,254,3.0,7.0,38,0.00,,,0.00,weatherlink.com 1.10,2013-03-16 16:38:00,
2013-03-16 12:53:00,34.9,11.0,29.81,West,264,2.0,4.0,38,0.00,,,0.00,weatherlink.com 1.10,2013-03-16 16:53:00,
2013-03-16 13:08:00,35.5,11.0,29.80,NNE,20,5.0,5.0,37,0.00,,,0.00,weatherlink.com 1.10,2013-03-16 17:08:00,
2013-03-16 13:23:00,35.5,10.0,29.80,SSW,213,3.0,7.0,35,0.00,,,0.00,weatherlink.com 1.10,2013-03-16 17:23:00,
2013-03-16 13:38:00,36.5,10.0,29.79,SSW,210,3.0,6.0,33,0.00,,,0.00,weatherlink.com 1.10,2013-03-16 17:38:00,
2013-03-16 13:53:00,37.4,9.0,29.80,NNW,333,0.0,5.0,31,0.00,,,0.00,weatherlink.com 1.10,2013-03-16 17:53:00,
2013-03-16 14:08:00,38.8,9.0,29.79,West,278,4.0,4.0,29,0.00,,,0.00,weatherlink.com 1.10,2013-03-16 18:08:00,
2013-03-16 14:23:00,39.1,9.0,29.78,SSE,167,2.0,5.0,29,0.00,,,0.00,weatherlink.com 1.10,2013-03-16 18:23:00,
2013-03-16 14:38:00,38.8,7.0,29.78,WNW,292,1.0,6.0,27,0.00,,,0.00,weatherlink.com 1.10,2013-03-16 18:38:00,
2013-03-16 14:53:00,38.3,8.0,29.79,South,183,1.0,7.0,29,0.00,,,0.00,weatherlink.com 1.10,2013-03-16 18:53:00,
2013-03-16 15:08:00,38.3,9.0,29.78,WSW,241,2.0,7.0,30,0.00,,,0.00,weatherlink.com 1.10,2013-03-16 19:08:00,
2013-03-16 15:23:00,39.1,10.0,29.78,NW,320,2.0,3.0,30,0.00,,,0.00,weatherlink.com 1.10,2013-03-16 19:23:00,
2013-03-16 15:38:00,39.5,9.0,29.78,ESE,103,1.0,5.0,28,0.00,,,0.00,weatherlink.com 1.10,2013-03-16 19:38:00,
2013-03-16 15:53:00,39.1,9.0,29.79,WNW,287,0.0,8.0,29,0.00,,,0.00,weatherlink.com 1.10,2013-03-16 19:53:00,
2013-03-16 16:08:00,39.2,7.0,29.78,WSW,238,2.0,7.0,26,0.00,,,0.00,weatherlink.com 1.10,2013-03-16 20:08:00,
2013-03-16 16:23:00,39.5,8.0,29.77,NW,305,2.0,6.0,27,0.00,,,0.00,weatherlink.com 1.10,2013-03-16 20:23:00,
2013-03-16 16:38:00,39.1,8.0,29.77,North,351,1.0,3.0,27,0.00,,,0.00,weatherlink.com 1.10,2013-03-16 20:38:00,
2013-03-16 16:53:00,39.4,9.0,29.76,WNW,301,1.0,7.0,28,0.00,,,0.00,weatherlink.com 1.10,2013-03-16 20:53:00,
2013-03-16 17:08:00,40.0,9.0,29.76,NW,319,0.0,3.0,28,0.00,,,0.00,weatherlink.com 1.10,2013-03-16 21:08:00,
2013-03-16 17:23:00,40.5,8.0,29.76,ESE,105,0.0,3.0,26,0.00,,,0.00,weatherlink.com 1.10,2013-03-16 21:23:00,
2013-03-16 17:38:00,39.1,10.0,29.77,West,279,1.0,3.0,30,0.00,,,0.00,weatherlink.com 1.10,2013-03-16 21:38:00,
2013-03-16 17:53:00,38.2,9.0,29.76,NNW,331,2.0,4.0,30,0.00,,,0.00,weatherlink.com 1.10,2013-03-16 21:53:00,
2013-03-16 18:08:00,37.9,10.0,29.76,WNW,292,1.0,2.0,31,0.00,,,0.00,weatherlink.com 1.10,2013-03-16 22:08:00,
2013-03-16 18:23:00,37.5,9.0,29.76,WSW,237,0.0,4.0,31,0.00,,,0.00,weatherlink.com 1.10,2013-03-16 22:23:00,
2013-03-16 18:38:00,37.4,11.0,29.76,WNW,292,0.0,1.0,33,0.00,,,0.00,weatherlink.com 1.10,2013-03-16 22:38:00,
2013-03-16 18:53:00,37.2,10.0,29.77,West,263,0.0,1.0,33,0.00,,,0.00,weatherlink.com 1.10,2013-03-16 22:53:00,
2013-03-16 19:08:00,37.1,11.0,29.78,WNW,303,0.0,3.0,34,0.00,,,0.00,weatherlink.com 1.10,2013-03-16 23:08:00,
2013-03-16 19:23:00,37.0,11.0,29.78,WNW,294,0.0,2.0,34,0.00,,,0.00,weatherlink.com 1.10,2013-03-16 23:23:00,
2013-03-16 19:38:00,36.9,11.0,29.78,WNW,303,0.0,1.0,35,0.00,,,0.00,weatherlink.com 1.10,2013-03-16 23:38:00,
2013-03-16 19:53:00,36.8,13.0,29.79,WNW,303,0.0,1.0,37,0.00,,,0.00,weatherlink.com 1.10,2013-03-16 23:53:00,
2013-03-16 20:08:00,36.7,13.0,29.80,NNW,327,0.0,1.0,37,0.00,,,0.00,weatherlink.com 1.10,2013-03-17 00:08:00,
2013-03-16 20:23:00,36.5,12.0,29.81,NNW,327,0.0,1.0,37,0.00,,,0.00,weatherlink.com 1.10,2013-03-17 00:23:00,
2013-03-16 20:38:00,36.4,12.0,29.81,WNW,298,0.0,1.0,37,0.00,,,0.00,weatherlink.com 1.10,2013-03-17 00:38:00,
2013-03-16 20:53:00,36.3,12.0,29.81,North,351,0.0,1.0,36,0.00,,,0.00,weatherlink.com 1.10,2013-03-17 00:53:00,
2013-03-16 21:08:00,36.2,12.0,29.82,NNW,338,0.0,1.0,37,0.00,,,0.00,weatherlink.com 1.10,2013-03-17 01:08:00,
2013-03-16 21:23:00,36.0,12.0,29.82,NNW,338,0.0,0.0,38,0.00,,,0.00,weatherlink.com 1.10,2013-03-17 01:23:00,
2013-03-16 21:38:00,35.9,13.0,29.82,NNW,338,0.0,1.0,39,0.00,,,0.00,weatherlink.com 1.10,2013-03-17 01:38:00,
2013-03-16 21:53:00,35.8,12.0,29.83,NNW,342,2.0,3.0,38,0.00,,,0.00,weatherlink.com 1.10,2013-03-17 01:53:00,
2013-03-16 22:08:00,35.7,12.0,29.84,NW,312,0.0,2.0,38,0.00,,,0.00,weatherlink.com 1.10,2013-03-17 02:08:00,
2013-03-16 22:23:00,35.7,12.0,29.84,NNW,328,0.0,2.0,37,0.00,,,0.00,weatherlink.com 1.10,2013-03-17 02:23:00,
2013-03-16 22:38:00,35.5,13.0,29.84,NNW,328,0.0,1.0,39,0.00,,,0.00,weatherlink.com 1.10,2013-03-17 02:38:00,
2013-03-16 22:53:00,35.4,12.0,29.85,NNW,328,0.0,0.0,38,0.00,,,0.00,weatherlink.com 1.10,2013-03-17 02:53:00,
2013-03-16 23:08:00,35.3,12.0,29.85,NNW,328,0.0,0.0,38,0.00,,,0.00,weatherlink.com 1.10,2013-03-17 03:08:00,
2013-03-16 23:23:00,34.9,12.0,29.85,NNW,329,0.0,0.0,39,0.00,,,0.00,weatherlink.com 1.10,2013-03-17 03:23:00,
2013-03-16 23:39:00,34.2,11.0,29.86,NNW,343,0.0,1.0,39,0.00,,,0.00,weatherlink.com 1.10,2013-03-17 03:39:00,
2013-03-16 23:54:00,33.3,13.0,29.87,NNE,12,0.0,1.0,43,0.00,,,0.00,weatherlink.com 1.10,2013-03-17 03:54:00,